• In Slovakia
  • List of Countries
  • For 7 days
  • Water Temperature
  • Satellite Maps
  • Weather Map
  • Weather Widgets
  • user-avatar
    Login

    Hourly Weather Sempolki

    Today, 24 October, Wednesday

    Time Temperature Precipitation Wind Pressure Humidity
    00:00 +7°C° 0.4 mm 10 mps 739 mmHg 77%
    01:00 +7°C° 0.4 mm 10 mps 738 mmHg 76%
    02:00 +6°C° 0.4 mm 10 mps 738 mmHg 74%
    03:00 +6°C° 0.4 mm 10 mps 738 mmHg 72%
    04:00 +5°C° 0.4 mm 10 mps 738 mmHg 70%
    05:00 +5°C° 0.2 mm 9 mps 739 mmHg 70%
    06:00 +5°C° 0.2 mm 9 mps 740 mmHg 69%
    07:00 +4°C° 0.2 mm 8 mps 741 mmHg 68%
    08:00 +5°C° 0 mm 9 mps 741 mmHg 61%
    09:00 +5°C° 0 mm 10 mps 742 mmHg 54%
    10:00 +6°C° 0 mm 11 mps 743 mmHg 47%
    11:00 +6°C° 0 mm 11 mps 743 mmHg 45%
    12:00 +6°C° 0 mm 11 mps 744 mmHg 44%
    13:00 +7°C° 0 mm 11 mps 744 mmHg 42%
    14:00 +6°C° 0 mm 10 mps 745 mmHg 44%
    15:00 +6°C° 0 mm 9 mps 745 mmHg 46%
    16:00 +6°C° 0 mm 8 mps 746 mmHg 48%
    17:00 +5°C° 0 mm 7 mps 747 mmHg 51%
    18:00 +5°C° 0 mm 7 mps 747 mmHg 53%
    19:00 +4°C° 0 mm 7 mps 748 mmHg 56%
    20:00 +4°C° 0 mm 6 mps 748 mmHg 58%
    21:00 +3°C° 0 mm 6 mps 749 mmHg 60%
    22:00 +3°C° 0 mm 6 mps 749 mmHg 61%
    23:00 +3°C° 0 mm 6 mps 749 mmHg 65%

    Tomorrow, 25 October, Thursday

    Time Temperature Precipitation Wind Pressure Humidity
    00:00 +3°C° 0 mm 6 mps 749 mmHg 68%
    01:00 +2°C° 0 mm 5 mps 749 mmHg 72%
    02:00 +2°C° 0 mm 5 mps 749 mmHg 74%
    03:00 +2°C° 0 mm 5 mps 748 mmHg 75%
    04:00 +2°C° 0 mm 5 mps 748 mmHg 77%
    05:00 +3°C° 0.5 mm 5 mps 747 mmHg 81%
    06:00 +3°C° 0.5 mm 5 mps 746 mmHg 84%
    07:00 +3°C° 0.5 mm 6 mps 745 mmHg 87%
    08:00 +5°C° 0.7 mm 7 mps 745 mmHg 87%
    09:00 +7°C° 0.7 mm 8 mps 744 mmHg 87%
    10:00 +8°C° 0.7 mm 9 mps 743 mmHg 87%
    11:00 +8°C° 0.2 mm 9 mps 743 mmHg 85%
    12:00 +10°C° 0.2 mm 9 mps 743 mmHg 84%
    13:00 +10°C° 0.2 mm 9 mps 742 mmHg 82%
    14:00 +10°C° 0.2 mm 9 mps 743 mmHg 80%
    15:00 +10°C° 0.2 mm 9 mps 743 mmHg 78%
    16:00 +10°C° 0.2 mm 9 mps 743 mmHg 76%
    17:00 +9°C° 0.1 mm 8 mps 744 mmHg 75%
    18:00 +7°C° 0.1 mm 8 mps 744 mmHg 75%
    19:00 +6°C° 0.1 mm 7 mps 745 mmHg 74%
    20:00 +6°C° 0 mm 7 mps 745 mmHg 76%
    21:00 +6°C° 0 mm 7 mps 745 mmHg 77%
    22:00 +5°C° 0 mm 6 mps 745 mmHg 79%
    23:00 +5°C° 0 mm 6 mps 745 mmHg 80%

    Day after tomorrow, 26 October, Friday

    Time Temperature Precipitation Wind Pressure Humidity
    00:00 +5°C° 0 mm 6 mps 746 mmHg 81%
    01:00 +5°C° 0 mm 6 mps 746 mmHg 82%
    02:00 +4°C° 0 mm 6 mps 746 mmHg 83%
    03:00 +4°C° 0 mm 6 mps 746 mmHg 84%
    04:00 +5°C° 0 mm 5 mps 746 mmHg 85%
    05:00 +5°C° 0 mm 5 mps 746 mmHg 85%
    06:00 +5°C° 0 mm 5 mps 746 mmHg 85%
    07:00 +5°C° 0 mm 5 mps 745 mmHg 85%
    08:00 +6°C° 0 mm 5 mps 745 mmHg 80%
    09:00 +7°C° 0 mm 5 mps 745 mmHg 76%
    10:00 +8°C° 0 mm 5 mps 745 mmHg 71%
    11:00 +9°C° 0 mm 5 mps 745 mmHg 73%
    12:00 +10°C° 0 mm 6 mps 744 mmHg 74%
    13:00 +10°C° 0 mm 6 mps 744 mmHg 76%
    14:00 +10°C° 0.1 mm 5 mps 743 mmHg 76%
    15:00 +10°C° 0.1 mm 5 mps 742 mmHg 76%
    16:00 +12°C° 0.1 mm 5 mps 742 mmHg 76%
    17:00 +10°C° 0.1 mm 5 mps 741 mmHg 76%
    18:00 +10°C° 0.1 mm 6 mps 741 mmHg 76%
    19:00 +10°C° 0.1 mm 6 mps 741 mmHg 75%
    20:00 +9°C° 0 mm 7 mps 741 mmHg 75%
    21:00 +9°C° 0 mm 7 mps 741 mmHg 74%
    22:00 +8°C° 0 mm 7 mps 740 mmHg 73%
    23:00 +7°C° 0 mm 8 mps 741 mmHg 73%

    27 October, Saturday

    Time Temperature Precipitation Wind Pressure Humidity
    00:00 +7°C° 0 mm 8 mps 741 mmHg 73%
    01:00 +7°C° 0 mm 8 mps 741 mmHg 72%
    02:00 +6°C° 0 mm 9 mps 741 mmHg 72%
    03:00 +5°C° 0 mm 9 mps 741 mmHg 71%
    04:00 +5°C° 0 mm 9 mps 742 mmHg 71%
    05:00 +5°C° 0 mm 9 mps 742 mmHg 72%
    06:00 +4°C° 0 mm 8 mps 743 mmHg 72%
    07:00 +4°C° 0 mm 7 mps 743 mmHg 73%
    08:00 +5°C° 0 mm 7 mps 744 mmHg 71%
    09:00 +5°C° 0 mm 7 mps 745 mmHg 70%
    10:00 +5°C° 0 mm 7 mps 745 mmHg 68%
    11:00 +5°C° 0 mm 7 mps 746 mmHg 66%
    12:00 +5°C° 0 mm 6 mps 746 mmHg 65%
    13:00 +7°C° 0 mm 6 mps 746 mmHg 64%
    14:00 +6°C° 0 mm 5 mps 747 mmHg 64%
    15:00 +6°C° 0 mm 4 mps 747 mmHg 64%
    16:00 +6°C° 0 mm 4 mps 747 mmHg 64%
    17:00 +7°C° 0 mm 3 mps 748 mmHg 66%
    18:00 +6°C° 0 mm 2 mps 749 mmHg 69%
    19:00 +6°C° 0 mm 2 mps 749 mmHg 72%
    20:00 +7°C° 0 mm 1 mps 749 mmHg 72%
    21:00 +6°C° 0 mm 1 mps 750 mmHg 73%
    22:00 +6°C° 0 mm 1 mps 750 mmHg 74%
    23:00 +6°C° 0 mm 1 mps 750 mmHg 75%

    28 October, Sunday

    Time Temperature Precipitation Wind Pressure Humidity
    00:00 +5°C° 0 mm 1 mps 750 mmHg 75%
    01:00 +4°C° 0 mm 2 mps 751 mmHg 76%
    02:00 +4°C° 0 mm 2 mps 751 mmHg 76%
    03:00 +4°C° 0 mm 2 mps 751 mmHg 76%
    04:00 +4°C° 0 mm 2 mps 751 mmHg 77%
    05:00 +4°C° 0 mm 2 mps 751 mmHg 76%
    06:00 +3°C° 0 mm 3 mps 752 mmHg 75%
    07:00 +3°C° 0 mm 3 mps 752 mmHg 74%
    08:00 +3°C° 0 mm 3 mps 752 mmHg 71%
    09:00 +4°C° 0 mm 4 mps 752 mmHg 68%
    10:00 +5°C° 0 mm 4 mps 752 mmHg 65%
    11:00 +5°C° 0.1 mm 5 mps 752 mmHg 64%
    12:00 +5°C° 0.1 mm 5 mps 752 mmHg 64%
    13:00 +6°C° 0.1 mm 5 mps 752 mmHg 63%
    14:00 +5°C° 0.6 mm 5 mps 752 mmHg 65%
    15:00 +4°C° 0.6 mm 6 mps 752 mmHg 68%
    16:00 +4°C° 0.6 mm 6 mps 752 mmHg 70%
    17:00 +3°C° 0.4 mm 7 mps 751 mmHg 71%
    18:00 +3°C° 0.4 mm 7 mps 751 mmHg 71%
    19:00 +2°C° 0.4 mm 8 mps 751 mmHg 72%
    20:00 +2°C° 0.4 mm 8 mps 751 mmHg 73%
    21:00 +2°C° 0.4 mm 8 mps 751 mmHg 75%
    22:00 +2°C° 0.4 mm 9 mps 750 mmHg 76%
    23:00 +2°C° 0.9 mm 9 mps 750 mmHg 78%

    29 October, Monday

    Time Temperature Precipitation Wind Pressure Humidity
    00:00 +2°C° 0.9 mm 9 mps 749 mmHg 80%
    01:00 +2°C° 0.9 mm 9 mps 748 mmHg 82%
    02:00 +2°C° 1.8 mm 9 mps 748 mmHg 84%
    03:00 +2°C° 1.8 mm 9 mps 747 mmHg 85%
    04:00 +2°C° 1.8 mm 9 mps 747 mmHg 86%
    05:00 +2°C° 1.6 mm 9 mps 746 mmHg 87%
    06:00 +2°C° 1.6 mm 9 mps 745 mmHg 87%
    07:00 +2°C° 1.6 mm 9 mps 745 mmHg 88%
    08:00 +2°C° 2.2 mm 8 mps 744 mmHg 89%
    09:00 +4°C° 2.2 mm 8 mps 744 mmHg 90%
    10:00 +4°C° 2.2 mm 7 mps 744 mmHg 91%
    11:00 +5°C° 0.6 mm 6 mps 743 mmHg 91%
    12:00 +5°C° 0.6 mm 6 mps 743 mmHg 91%
    13:00 +7°C° 0.6 mm 5 mps 742 mmHg 92%
    14:00 +7°C° 1 mm 5 mps 742 mmHg 93%
    15:00 +7°C° 1 mm 5 mps 742 mmHg 94%
    16:00 +7°C° 1 mm 4 mps 742 mmHg 95%
    17:00 +7°C° 0.2 mm 4 mps 742 mmHg 95%
    18:00 +7°C° 0.2 mm 4 mps 742 mmHg 95%
    19:00 +7°C° 0.2 mm 4 mps 742 mmHg 95%
    20:00 +7°C° 0.1 mm 4 mps 742 mmHg 95%
    21:00 +8°C° 0.1 mm 4 mps 742 mmHg 95%
    22:00 +8°C° 0.1 mm 4 mps 742 mmHg 95%
    23:00 +8°C° 0 mm 4 mps 742 mmHg 95%

    30 October, Tuesday

    Time Temperature Precipitation Wind Pressure Humidity
    00:00 +8°C° 0 mm 4 mps 742 mmHg 95%
    01:00 +8°C° 0 mm 5 mps 742 mmHg 94%
    02:00 +9°C° 0 mm 5 mps 742 mmHg 94%
    03:00 +9°C° 0 mm 5 mps 741 mmHg 93%
    04:00 +9°C° 0 mm 5 mps 741 mmHg 92%
    05:00 +9°C° 0.1 mm 5 mps 741 mmHg 92%
    06:00 +10°C° 0.1 mm 6 mps 740 mmHg 91%
    07:00 +10°C° 0.1 mm 6 mps 740 mmHg 91%
    08:00 +11°C° 0 mm 6 mps 740 mmHg 88%
    09:00 +13°C° 0 mm 5 mps 741 mmHg 85%
    10:00 +13°C° 0 mm 5 mps 741 mmHg 82%
    11:00 +14°C° 0 mm 5 mps 741 mmHg 79%
    12:00 +15°C° 0 mm 5 mps 741 mmHg 77%
    13:00 +15°C° 0 mm 4 mps 741 mmHg 75%
    14:00 +15°C° 0 mm 4 mps 741 mmHg 78%
    15:00 +14°C° 0 mm 3 mps 742 mmHg 81%
    16:00 +15°C° 0 mm 2 mps 742 mmHg 84%
    17:00 +14°C° 0.9 mm 2 mps 742 mmHg 87%
    18:00 +14°C° 0.9 mm 2 mps 742 mmHg 90%
    19:00 +13°C° 0.9 mm 1 mps 743 mmHg 92%
    20:00 +12°C° 1.1 mm 3 mps 743 mmHg 91%
    21:00 +11°C° 1.1 mm 4 mps 743 mmHg 90%
    22:00 +10°C° 1.1 mm 5 mps 743 mmHg 88%
    23:00 +9°C° 1 mm 6 mps 743 mmHg 87%
    Show more